This is the latest recevied weather packets stored in our database for station/object W9KHP-1. If no packets are shown the sender has not sent any weather packets the latest 1 day(s).
| Time | Temp. | Humidity | Pressure | Rain* | Wind** | Luminosity | Snow |
|---|---|---|---|---|---|---|---|
| 1777995066 | 17.78° C | 82% | 1011.9 hPa | 0 mm | 0.45 m/s, 117° | 21 W/m² | - |
| 1777994773 | 18.33° C | 79% | 1011.9 hPa | 0 mm | 2.68 m/s, 194° | 35 W/m² | - |
| 1777994458 | 18.33° C | 78% | 1011.8 hPa | 0 mm | 0 m/s | 72 W/m² | - |
| 1777994153 | 18.33° C | 78% | 1011.7 hPa | 0 mm | 0 m/s | 52 W/m² | - |
| 1777993851 | 17.78° C | 77% | 1011.7 hPa | 0 mm | 0 m/s | 35 W/m² | - |
| 1777993547 | 17.78° C | 77% | 1011.8 hPa | 0 mm | 0 m/s | 64 W/m² | - |
| 1777993244 | 17.78° C | 78% | 1011.6 hPa | 0 mm | 0 m/s | 51 W/m² | - |
| 1777992940 | 17.78° C | 77% | 1011.4 hPa | 0 mm | 1.34 m/s, 171° | 85 W/m² | - |
| 1777992638 | 17.78° C | 78% | 1011.5 hPa | 0 mm | 0 m/s | 81 W/m² | - |
| 1777992336 | 17.78° C | 77% | 1011.3 hPa | 0 mm | 0.89 m/s, 231° | 59 W/m² | - |
| 1777992033 | 17.78° C | 78% | 1011.2 hPa | 0 mm | 0 m/s | 82 W/m² | - |
| 1777991731 | 17.78° C | 77% | 1011.2 hPa | 0 mm | 0 m/s | 76 W/m² | - |
| 1777991428 | 17.78° C | 77% | 1011.3 hPa | 0 mm | 0 m/s | 98 W/m² | - |
| 1777991125 | 17.78° C | 77% | 1011.3 hPa | 0 mm | 0.45 m/s, 176° | 126 W/m² | - |
| 1777990822 | 17.22° C | 77% | 1011.2 hPa | 0 mm | 0 m/s | 114 W/m² | - |
| 1777990519 | 17.22° C | 77% | 1011 hPa | 0 mm | 0 m/s | 99 W/m² | - |
| 1777990216 | 17.22° C | 77% | 1011.1 hPa | 0 mm | 1.34 m/s, 171° | 101 W/m² | - |
| 1777989913 | 17.22° C | 77% | 1011.1 hPa | 0 mm | 1.34 m/s, 185° | 84 W/m² | - |
| 1777989610 | 17.22° C | 77% | 1011.1 hPa | 0 mm | 0.89 m/s, 184° | 67 W/m² | - |
| 1777989306 | 17.22° C | 78% | 1011.1 hPa | 0 mm | 0.45 m/s, 148° | 64 W/m² | - |
| 1777989002 | 16.67° C | 78% | 1011.1 hPa | 0 mm | 0 m/s | 69 W/m² | - |
| 1777988699 | 16.67° C | 78% | 1011.2 hPa | 0 mm | 0 m/s | 63 W/m² | - |
| 1777988395 | 16.67° C | 78% | 1011.1 hPa | 0 mm | 0 m/s | 61 W/m² | - |
| 1777988093 | 16.67° C | 78% | 1011.1 hPa | 0 mm | 0 m/s | 58 W/m² | - |
| 1777987788 | 16.67° C | 78% | 1011.1 hPa | 0 mm | 2.24 m/s, 200° | 69 W/m² | - |
* Rain latest hour (hover to see other rain measurements)
** Current wind speed in m/s (hover to see current wind gust speed)